Time,TemperatureF,DewpointF,PressureIn,WindDirection,WindDirectionDegrees,WindSpeedMPH,WindSpeedGustMPH,Humidity,HourlyPrecipIn,Conditions,Clouds,dailyrainin,SoftwareType,DateUTC
2013-03-01 00:00:00,33.4,30.0,29.59,SW,225,0.0,0.0,87,0.00,,OVC070,0.00,VWS V14.01,2013-03-01 05:00:00,
2013-03-01 00:01:00,33.3,29.8,29.59,SW,225,0.0,0.0,87,0.00,,OVC070,0.00,VWS V14.01,2013-03-01 05:01:00,
2013-03-01 00:06:00,33.3,30.1,29.59,SW,225,0.0,0.0,88,0.00,,OVC070,0.00,VWS V14.01,2013-03-01 05:06:00,
2013-03-01 00:11:00,33.3,30.1,29.59,SW,225,0.0,0.0,88,0.00,,OVC070,0.00,VWS V14.01,2013-03-01 05:11:00,
2013-03-01 00:16:00,33.1,29.9,29.59,SW,225,0.0,0.0,88,0.00,,OVC070,0.00,VWS V14.01,2013-03-01 05:16:00,
2013-03-01 00:21:00,32.9,29.7,29.59,SW,225,0.0,0.0,88,0.00,,OVC070,0.00,VWS V14.01,2013-03-01 05:21:00,
2013-03-01 00:26:00,32.9,29.7,29.59,SW,225,0.0,0.0,88,0.00,,OVC070,0.00,VWS V14.01,2013-03-01 05:26:00,
2013-03-01 00:31:00,32.7,29.6,29.59,SW,225,0.0,0.0,88,0.00,,OVC070,0.00,VWS V14.01,2013-03-01 05:31:00,
2013-03-01 00:36:00,32.7,29.6,29.59,SW,225,0.0,0.0,88,0.00,,OVC070,0.00,VWS V14.01,2013-03-01 05:36:00,
2013-03-01 00:41:00,32.7,29.6,29.59,SW,225,0.0,0.0,88,0.00,,CLR,0.00,VWS V14.01,2013-03-01 05:41:00,
2013-03-01 00:46:00,32.7,29.6,29.59,SW,225,0.0,0.0,88,0.00,,CLR,0.00,VWS V14.01,2013-03-01 05:46:00,
2013-03-01 00:51:00,32.7,29.6,29.59,SW,225,0.0,0.0,88,0.00,,CLR,0.00,VWS V14.01,2013-03-01 05:51:00,
2013-03-01 00:56:00,32.5,29.4,29.59,SW,225,0.0,0.0,88,0.00,,CLR,0.00,VWS V14.01,2013-03-01 05:56:00,
2013-03-01 01:01:00,32.5,29.4,29.59,SW,225,0.0,0.0,88,0.00,,CLR,0.00,VWS V14.01,2013-03-01 06:01:00,
2013-03-01 01:06:00,32.4,29.2,29.59,SW,225,0.0,0.0,88,0.00,,CLR,0.00,VWS V14.01,2013-03-01 06:06:00,
2013-03-01 01:11:00,32.0,28.9,29.59,SW,225,0.0,0.0,88,0.00,,CLR,0.00,VWS V14.01,2013-03-01 06:11:00,
2013-03-01 01:16:00,31.6,28.5,29.59,SW,225,0.0,0.0,88,0.00,,CLR,0.00,VWS V14.01,2013-03-01 06:16:00,
2013-03-01 01:21:00,31.5,28.3,29.59,SW,225,0.0,0.0,88,0.00,,CLR,0.00,VWS V14.01,2013-03-01 06:21:00,
2013-03-01 01:26:00,31.3,28.1,29.59,SW,225,0.0,0.0,88,0.00,,CLR,0.00,VWS V14.01,2013-03-01 06:26:00,
2013-03-01 01:31:00,31.3,28.1,29.59,SW,225,0.0,0.0,88,0.00,,CLR,0.00,VWS V14.01,2013-03-01 06:31:00,
2013-03-01 01:36:00,31.3,28.1,29.62,SW,225,0.0,0.0,88,0.00,,CLR,0.00,VWS V14.01,2013-03-01 06:36:00,
2013-03-01 01:41:00,31.3,28.1,29.62,SW,225,0.0,0.0,88,0.00,,OVC090,0.00,VWS V14.01,2013-03-01 06:41:00,
2013-03-01 01:47:00,31.1,28.2,29.62,SW,225,0.0,0.0,89,0.00,,OVC090,0.00,VWS V14.01,2013-03-01 06:47:00,
2013-03-01 01:52:00,30.9,28.1,29.62,SW,225,0.0,0.0,89,0.00,,OVC090,0.00,VWS V14.01,2013-03-01 06:52:00,
2013-03-01 01:57:00,30.7,27.9,29.62,SW,225,0.0,0.0,89,0.00,,OVC090,0.00,VWS V14.01,2013-03-01 06:57:00,
2013-03-01 02:02:00,30.6,27.7,29.62,SW,225,0.0,0.0,89,0.00,,OVC090,0.00,VWS V14.01,2013-03-01 07:02:00,
2013-03-01 02:07:00,30.4,27.5,29.62,SW,225,0.0,0.0,89,0.00,,OVC090,0.00,VWS V14.01,2013-03-01 07:07:00,
2013-03-01 02:12:00,30.2,27.6,29.62,SW,225,0.0,0.0,90,0.00,,OVC090,0.00,VWS V14.01,2013-03-01 07:12:00,
2013-03-01 02:17:00,29.8,27.3,29.62,SW,225,0.0,0.0,90,0.00,,OVC090,0.00,VWS V14.01,2013-03-01 07:17:00,
2013-03-01 02:22:00,29.7,27.1,29.62,SW,225,0.0,0.0,90,0.00,,OVC090,0.00,VWS V14.01,2013-03-01 07:22:00,
2013-03-01 02:27:00,29.7,27.1,29.62,SW,225,0.0,0.0,90,0.00,,OVC090,0.00,VWS V14.01,2013-03-01 07:27:00,
2013-03-01 02:32:00,29.5,26.9,29.62,SW,225,0.0,0.0,90,0.00,,OVC090,0.00,VWS V14.01,2013-03-01 07:32:00,
2013-03-01 02:37:00,29.5,26.9,29.62,SW,225,0.0,0.0,90,0.00,,OVC090,0.00,VWS V14.01,2013-03-01 07:37:00,
2013-03-01 02:42:00,29.5,26.9,29.62,SW,225,0.0,0.0,90,0.00,,CLR,0.00,VWS V14.01,2013-03-01 07:42:00,
2013-03-01 02:47:00,29.5,27.2,29.62,SW,225,0.0,0.0,91,0.00,,CLR,0.00,VWS V14.01,2013-03-01 07:47:00,
2013-03-01 02:52:00,29.3,26.7,29.62,SW,225,0.0,0.0,90,0.00,,CLR,0.00,VWS V14.01,2013-03-01 07:52:00,
2013-03-01 02:57:00,29.1,26.8,29.62,SW,225,0.0,0.0,91,0.00,,CLR,0.00,VWS V14.01,2013-03-01 07:57:00,
2013-03-01 03:02:00,29.3,27.0,29.62,SW,225,0.0,0.0,91,0.00,,CLR,0.00,VWS V14.01,2013-03-01 08:02:00,
2013-03-01 03:07:00,29.3,27.0,29.62,SW,225,0.0,0.0,91,0.00,,CLR,0.00,VWS V14.01,2013-03-01 08:07:00,
2013-03-01 03:12:00,29.1,26.8,29.62,SW,225,0.0,0.0,91,0.00,,CLR,0.00,VWS V14.01,2013-03-01 08:12:00,
2013-03-01 03:17:00,29.1,26.8,29.62,SW,225,0.0,0.0,91,0.00,,CLR,0.00,VWS V14.01,2013-03-01 08:17:00,
2013-03-01 03:22:00,29.1,26.8,29.62,NE,45,0.0,0.0,91,0.00,,CLR,0.00,VWS V14.01,2013-03-01 08:22:00,
2013-03-01 03:27:00,29.1,26.8,29.62,NE,45,0.0,0.0,91,0.00,,CLR,0.00,VWS V14.01,2013-03-01 08:27:00,
2013-03-01 03:32:00,29.1,26.8,29.62,North,0,0.0,0.0,91,0.00,,CLR,0.00,VWS V14.01,2013-03-01 08:32:00,
2013-03-01 03:37:00,29.1,26.8,29.62,North,0,0.0,0.0,91,0.00,,CLR,0.00,VWS V14.01,2013-03-01 08:37:00,
2013-03-01 03:42:00,29.1,26.8,29.62,North,0,0.0,0.0,91,0.00,,CLR,0.00,VWS V14.01,2013-03-01 08:42:00,
2013-03-01 03:47:00,29.3,27.3,29.62,North,0,0.0,0.0,92,0.00,,CLR,0.00,VWS V14.01,2013-03-01 08:47:00,
2013-03-01 03:52:00,29.3,27.3,29.62,North,0,0.0,0.0,92,0.00,,CLR,0.00,VWS V14.01,2013-03-01 08:52:00,
2013-03-01 03:57:00,29.5,27.2,29.62,North,0,0.0,0.0,91,0.00,,CLR,0.00,VWS V14.01,2013-03-01 08:57:00,
2013-03-01 04:02:00,29.3,27.0,29.62,North,0,0.0,0.0,91,0.00,,CLR,0.00,VWS V14.01,2013-03-01 09:02:00,
2013-03-01 04:07:00,29.3,27.0,29.62,North,0,0.0,0.0,91,0.00,,CLR,0.00,VWS V14.01,2013-03-01 09:07:00,
2013-03-01 04:12:00,29.3,27.0,29.62,North,0,0.0,0.0,91,0.00,,CLR,0.00,VWS V14.01,2013-03-01 09:12:00,
2013-03-01 04:17:00,29.3,27.0,29.62,North,0,0.0,0.0,91,0.00,,CLR,0.00,VWS V14.01,2013-03-01 09:17:00,
2013-03-01 04:22:00,29.3,27.0,29.62,North,0,0.0,0.0,91,0.00,,CLR,0.00,VWS V14.01,2013-03-01 09:22:00,
2013-03-01 04:28:00,29.1,26.8,29.62,North,0,0.0,0.0,91,0.00,,CLR,0.00,VWS V14.01,2013-03-01 09:28:00,
2013-03-01 04:33:00,29.1,26.8,29.62,North,0,0.0,0.0,91,0.00,,CLR,0.00,VWS V14.01,2013-03-01 09:33:00,
2013-03-01 04:38:00,29.1,26.8,29.65,North,0,0.0,0.0,91,0.00,,CLR,0.00,VWS V14.01,2013-03-01 09:38:00,
2013-03-01 04:43:00,29.5,27.2,29.65,WSW,248,0.0,0.0,91,0.00,,CLR,0.00,VWS V14.01,2013-03-01 09:43:00,
2013-03-01 04:48:00,29.5,27.5,29.65,WSW,248,0.0,0.0,92,0.00,,CLR,0.00,VWS V14.01,2013-03-01 09:48:00,
2013-03-01 04:53:00,29.5,27.5,29.65,WSW,248,0.0,0.0,92,0.00,,CLR,0.00,VWS V14.01,2013-03-01 09:53:00,
2013-03-01 04:58:00,29.7,27.6,29.65,WSW,248,0.0,0.0,92,0.00,,CLR,0.00,VWS V14.01,2013-03-01 09:58:00,
2013-03-01 05:03:00,29.8,28.1,29.65,WSW,248,0.0,0.0,93,0.00,,CLR,0.00,VWS V14.01,2013-03-01 10:03:00,
2013-03-01 05:08:00,29.8,28.1,29.68,WSW,248,0.0,0.0,93,0.00,,CLR,0.00,VWS V14.01,2013-03-01 10:08:00,
2013-03-01 05:13:00,30.2,28.4,29.68,WSW,248,0.0,0.0,93,0.00,,CLR,0.00,VWS V14.01,2013-03-01 10:13:00,
2013-03-01 05:18:00,30.2,28.4,29.68,WSW,248,0.0,0.0,93,0.00,,CLR,0.00,VWS V14.01,2013-03-01 10:18:00,
2013-03-01 05:23:00,30.4,28.6,29.65,WSW,248,0.0,0.0,93,0.00,,CLR,0.00,VWS V14.01,2013-03-01 10:23:00,
2013-03-01 05:28:00,30.4,28.6,29.65,WSW,248,0.0,0.0,93,0.00,,CLR,0.00,VWS V14.01,2013-03-01 10:28:00,
2013-03-01 05:33:00,30.6,28.8,29.65,WSW,248,0.0,0.0,93,0.00,,CLR,0.00,VWS V14.01,2013-03-01 10:33:00,
2013-03-01 05:38:00,30.7,29.0,29.65,WSW,248,0.0,0.0,93,0.00,,CLR,0.00,VWS V14.01,2013-03-01 10:38:00,
2013-03-01 05:43:00,30.7,29.0,29.65,WSW,248,0.0,0.0,93,0.00,,CLR,0.00,VWS V14.01,2013-03-01 10:43:00,
2013-03-01 05:48:00,30.7,29.0,29.65,WSW,248,0.0,0.0,93,0.00,,CLR,0.00,VWS V14.01,2013-03-01 10:48:00,
2013-03-01 05:53:00,30.9,29.1,29.65,SW,225,0.0,0.0,93,0.00,,CLR,0.00,VWS V14.01,2013-03-01 10:53:00,
2013-03-01 05:58:00,30.9,29.1,29.65,SW,225,0.0,0.0,93,0.00,,CLR,0.00,VWS V14.01,2013-03-01 10:58:00,
2013-03-01 06:03:00,30.9,29.1,29.65,SW,225,0.0,0.0,93,0.00,,CLR,0.00,VWS V14.01,2013-03-01 11:03:00,
2013-03-01 06:08:00,30.9,28.9,29.65,SW,225,0.0,0.0,92,0.00,,CLR,0.00,VWS V14.01,2013-03-01 11:08:00,
2013-03-01 06:13:00,30.7,28.7,29.65,SW,225,0.0,0.0,92,0.00,,CLR,0.00,VWS V14.01,2013-03-01 11:13:00,
2013-03-01 06:18:00,30.7,28.7,29.65,SW,225,0.0,0.0,92,0.00,,CLR,0.00,VWS V14.01,2013-03-01 11:18:00,
2013-03-01 06:23:00,30.7,28.7,29.65,SW,225,0.0,0.0,92,0.00,,CLR,0.00,VWS V14.01,2013-03-01 11:23:00,
2013-03-01 06:28:00,30.7,28.4,29.65,SW,225,0.0,0.0,91,0.00,,CLR,0.00,VWS V14.01,2013-03-01 11:28:00,
2013-03-01 06:33:00,30.7,28.4,29.65,SW,225,0.0,0.0,91,0.00,,CLR,0.00,VWS V14.01,2013-03-01 11:33:00,
2013-03-01 06:38:00,30.7,28.4,29.65,SW,225,0.0,0.0,91,0.00,,CLR,0.00,VWS V14.01,2013-03-01 11:38:00,
2013-03-01 06:43:00,30.9,28.6,29.65,SW,225,0.0,0.0,91,0.00,,OVC055,0.00,VWS V14.01,2013-03-01 11:43:00,
2013-03-01 06:49:00,31.1,28.8,29.65,WSW,248,0.0,0.0,91,0.00,,OVC055,0.00,VWS V14.01,2013-03-01 11:49:00,
2013-03-01 06:54:00,31.1,28.8,29.65,SW,225,0.0,0.0,91,0.00,,OVC055,0.00,VWS V14.01,2013-03-01 11:54:00,
2013-03-01 06:59:00,31.3,29.0,29.65,SW,225,0.0,0.0,91,0.00,,OVC055,0.00,VWS V14.01,2013-03-01 11:59:00,
2013-03-01 07:04:00,31.5,29.1,29.65,SW,225,0.0,0.0,91,0.00,,OVC055,0.00,VWS V14.01,2013-03-01 12:04:00,
2013-03-01 07:09:00,31.5,29.1,29.65,SW,225,0.0,0.0,91,0.00,,OVC055,0.00,VWS V14.01,2013-03-01 12:09:00,
2013-03-01 07:14:00,31.6,29.3,29.65,SW,225,0.0,0.0,91,0.00,,OVC055,0.00,VWS V14.01,2013-03-01 12:14:00,
2013-03-01 07:19:00,31.6,29.0,29.65,SW,225,0.0,0.0,90,0.00,,OVC055,0.00,VWS V14.01,2013-03-01 12:19:00,
2013-03-01 07:24:00,31.8,29.2,29.68,SSW,202,0.0,0.0,90,0.00,,OVC055,0.00,VWS V14.01,2013-03-01 12:24:00,
2013-03-01 07:31:00,32.2,29.6,29.68,South,180,0.0,0.0,90,0.00,,OVC055,0.00,VWS V14.01,2013-03-01 12:31:00,
2013-03-01 07:36:00,32.2,29.6,29.68,East,90,0.0,0.0,90,0.00,,OVC055,0.00,VWS V14.01,2013-03-01 12:36:00,
2013-03-01 07:41:00,32.4,29.8,29.68,East,90,0.0,0.0,90,0.00,,OVC055,0.00,VWS V14.01,2013-03-01 12:41:00,
2013-03-01 07:46:00,32.5,29.9,29.68,WSW,248,0.0,0.0,90,0.00,,OVC055,0.00,VWS V14.01,2013-03-01 12:46:00,
2013-03-01 07:51:00,32.7,30.1,29.68,WSW,248,0.0,0.0,90,0.00,,OVC055,0.00,VWS V14.01,2013-03-01 12:51:00,
2013-03-01 07:56:00,32.7,30.1,29.68,WSW,248,0.0,0.0,90,0.00,,OVC055,0.00,VWS V14.01,2013-03-01 12:56:00,
2013-03-01 08:01:00,33.1,30.5,29.68,NW,315,0.0,0.0,90,0.00,,OVC060,0.00,VWS V14.01,2013-03-01 13:01:00,
2013-03-01 08:07:00,33.3,30.6,29.65,NE,45,0.0,0.0,90,0.00,,OVC060,0.00,VWS V14.01,2013-03-01 13:07:00,
2013-03-01 08:12:00,33.6,31.0,29.65,NE,45,0.0,0.0,90,0.00,,OVC060,0.00,VWS V14.01,2013-03-01 13:12:00,
2013-03-01 08:17:00,33.8,31.2,29.65,NNE,22,0.0,0.0,90,0.00,,OVC060,0.00,VWS V14.01,2013-03-01 13:17:00,
2013-03-01 08:22:00,34.0,31.4,29.68,NE,45,0.0,0.0,90,0.00,,OVC060,0.00,VWS V14.01,2013-03-01 13:22:00,
2013-03-01 08:27:00,34.3,31.7,29.68,NE,45,0.0,0.0,90,0.00,,OVC060,0.00,VWS V14.01,2013-03-01 13:27:00,
2013-03-01 09:16:00,36.9,32.8,29.68,East,90,0.0,1.8,85,0.00,,OVC060,0.00,VWS V14.01,2013-03-01 14:16:00,
2013-03-01 12:25:00,48.7,27.8,29.68,West,270,4.5,5.4,44,0.00,,OVC060,0.00,VWS V14.01,2013-03-01 17:25:00,
2013-03-01 16:34:00,39.7,22.2,29.68,WSW,248,5.4,5.4,49,0.00,,OVC060,0.00,VWS V14.01,2013-03-01 21:34:00,
2013-03-01 17:22:00,38.5,23.3,29.71,SW,225,0.0,0.0,54,0.00,,OVC060,0.00,VWS V14.01,2013-03-01 22:22:00,
2013-03-01 17:27:00,38.3,23.1,29.71,West,270,0.0,0.0,54,0.00,,OVC060,0.00,VWS V14.01,2013-03-01 22:27:00,
2013-03-01 17:32:00,38.3,23.6,29.71,NW,315,4.0,4.0,55,0.00,,OVC060,0.00,VWS V14.01,2013-03-01 22:32:00,
2013-03-01 17:38:00,38.1,23.4,29.71,WSW,248,4.0,4.0,55,0.00,,OVC060,0.00,VWS V14.01,2013-03-01 22:38:00,
2013-03-01 17:43:00,38.1,23.4,29.71,SW,225,1.8,1.8,55,0.00,,OVC055,0.00,VWS V14.01,2013-03-01 22:43:00,
2013-03-01 17:48:00,38.1,23.4,29.71,NW,315,0.0,0.0,55,0.00,,OVC055,0.00,VWS V14.01,2013-03-01 22:48:00,
2013-03-01 17:53:00,37.9,23.2,29.71,NNW,338,2.7,2.7,55,0.00,,OVC055,0.00,VWS V14.01,2013-03-01 22:53:00,
2013-03-01 17:58:00,37.9,23.7,29.71,NW,315,1.8,3.1,56,0.00,,OVC055,0.00,VWS V14.01,2013-03-01 22:58:00,
2013-03-01 18:03:00,37.8,23.1,29.71,West,270,4.0,4.9,55,0.00,,OVC055,0.00,VWS V14.01,2013-03-01 23:03:00,
2013-03-01 18:08:00,37.8,23.5,29.74,NW,315,2.2,2.2,56,0.00,,OVC055,0.00,VWS V14.01,2013-03-01 23:08:00,
2013-03-01 18:13:00,37.6,23.3,29.74,West,270,6.3,6.3,56,0.00,,OVC055,0.00,VWS V14.01,2013-03-01 23:13:00,
2013-03-01 18:18:00,37.6,23.7,29.74,WNW,292,8.5,8.5,57,0.00,,OVC055,0.00,VWS V14.01,2013-03-01 23:18:00,
2013-03-01 18:23:00,37.4,23.6,29.74,WSW,248,0.0,5.8,57,0.00,,OVC055,0.00,VWS V14.01,2013-03-01 23:23:00,
2013-03-01 18:28:00,37.4,23.6,29.74,SW,225,4.0,6.7,57,0.00,,OVC055,0.00,VWS V14.01,2013-03-01 23:28:00,
2013-03-01 18:33:00,37.2,23.8,29.74,SW,225,1.8,1.8,58,0.00,,OVC055,0.00,VWS V14.01,2013-03-01 23:33:00,
2013-03-01 18:38:00,37.0,23.6,29.74,SW,225,5.4,8.5,58,0.00,,OVC055,0.00,VWS V14.01,2013-03-01 23:38:00,
2013-03-01 18:43:00,37.0,23.6,29.74,West,270,4.0,5.4,58,0.00,,OVC060,0.00,VWS V14.01,2013-03-01 23:43:00,
2013-03-01 18:48:00,36.9,23.5,29.74,WNW,292,2.7,4.9,58,0.00,,OVC060,0.00,VWS V14.01,2013-03-01 23:48:00,
2013-03-01 18:53:00,36.9,23.5,29.74,SW,225,0.0,0.0,58,0.00,,OVC060,0.00,VWS V14.01,2013-03-01 23:53:00,
2013-03-01 18:58:00,36.7,23.7,29.74,NNE,22,0.0,3.1,59,0.00,,OVC060,0.00,VWS V14.01,2013-03-01 23:58:00,
2013-03-01 19:03:00,36.7,23.3,29.74,West,270,4.0,5.8,58,0.00,,OVC060,0.00,VWS V14.01,2013-03-02 00:03:00,
2013-03-01 19:08:00,36.7,23.3,29.74,SW,225,5.4,9.8,58,0.00,,OVC060,0.00,VWS V14.01,2013-03-02 00:08:00,
2013-03-01 19:13:00,36.5,23.1,29.74,WNW,292,2.7,4.9,58,0.00,,OVC060,0.00,VWS V14.01,2013-03-02 00:13:00,
2013-03-01 19:18:00,36.5,23.1,29.74,NNW,338,6.7,6.7,58,0.00,,OVC060,0.00,VWS V14.01,2013-03-02 00:18:00,
2013-03-01 19:23:00,36.3,23.0,29.74,West,270,4.9,5.4,58,0.00,,OVC060,0.00,VWS V14.01,2013-03-02 00:23:00,
2013-03-01 19:28:00,36.3,23.0,29.74,West,270,4.0,4.0,58,0.00,,OVC060,0.00,VWS V14.01,2013-03-02 00:28:00,
2013-03-01 19:33:00,36.3,23.0,29.74,WSW,248,5.4,5.4,58,0.00,,OVC060,0.00,VWS V14.01,2013-03-02 00:33:00,
2013-03-01 19:38:00,36.3,23.0,29.76,West,270,0.0,0.0,58,0.00,,OVC060,0.00,VWS V14.01,2013-03-02 00:38:00,
2013-03-01 19:43:00,36.3,23.0,29.76,WSW,248,3.1,5.4,58,0.00,,OVC060,0.00,VWS V14.01,2013-03-02 00:43:00,
2013-03-01 19:48:00,36.1,22.4,29.76,SW,225,6.3,6.3,57,0.00,,OVC060,0.00,VWS V14.01,2013-03-02 00:48:00,
2013-03-01 19:53:00,36.1,22.4,29.76,West,270,0.0,1.8,57,0.00,,OVC060,0.00,VWS V14.01,2013-03-02 00:53:00,
2013-03-01 19:58:00,36.0,22.2,29.76,West,270,0.0,1.8,57,0.00,,OVC060,0.00,VWS V14.01,2013-03-02 00:58:00,
2013-03-01 20:03:00,36.0,22.6,29.76,SW,225,4.0,4.0,58,0.00,,OVC060,0.00,VWS V14.01,2013-03-02 01:03:00,
2013-03-01 20:08:00,35.8,22.5,29.76,SW,225,0.0,2.7,58,0.00,,OVC060,0.00,VWS V14.01,2013-03-02 01:08:00,
2013-03-01 20:13:00,35.8,22.5,29.76,SW,225,0.0,5.8,58,0.00,,OVC060,0.00,VWS V14.01,2013-03-02 01:13:00,
2013-03-01 20:18:00,35.8,22.5,29.76,NW,315,2.2,2.7,58,0.00,,OVC060,0.00,VWS V14.01,2013-03-02 01:18:00,
2013-03-01 20:23:00,35.6,22.3,29.76,WSW,248,4.0,5.4,58,0.00,,OVC060,0.00,VWS V14.01,2013-03-02 01:23:00,
2013-03-01 20:28:00,35.6,22.3,29.76,West,270,4.5,5.4,58,0.00,,OVC060,0.00,VWS V14.01,2013-03-02 01:28:00,
2013-03-01 20:33:00,35.4,22.5,29.76,NNW,338,0.0,0.0,59,0.00,,OVC060,0.00,VWS V14.01,2013-03-02 01:33:00,
2013-03-01 20:38:00,35.4,22.5,29.76,SW,225,4.9,5.4,59,0.00,,OVC060,0.00,VWS V14.01,2013-03-02 01:38:00,
2013-03-01 20:43:00,35.4,22.5,29.76,NNE,22,1.8,2.7,59,0.00,,OVC065,0.00,VWS V14.01,2013-03-02 01:43:00,
2013-03-01 20:48:00,35.4,22.1,29.76,SSW,202,2.2,5.4,58,0.00,,OVC065,0.00,VWS V14.01,2013-03-02 01:48:00,
2013-03-01 20:53:00,35.2,22.0,29.76,SSW,202,2.7,2.7,58,0.00,,OVC065,0.00,VWS V14.01,2013-03-02 01:53:00,
2013-03-01 21:01:00,35.2,22.0,29.76,West,270,0.0,5.4,58,0.00,,OVC065,0.00,VWS V14.01,2013-03-02 02:01:00,
2013-03-01 21:06:00,35.2,21.5,29.76,SW,225,4.0,4.0,57,0.00,,OVC065,0.00,VWS V14.01,2013-03-02 02:06:00,
2013-03-01 21:11:00,35.1,21.0,29.76,SW,225,0.0,4.9,56,0.00,,OVC065,0.00,VWS V14.01,2013-03-02 02:11:00,
2013-03-01 21:16:00,35.1,21.0,29.76,NNE,22,5.8,5.8,56,0.00,,OVC065,0.00,VWS V14.01,2013-03-02 02:16:00,
2013-03-01 21:21:00,35.1,21.0,29.76,West,270,5.4,6.7,56,0.00,,OVC065,0.00,VWS V14.01,2013-03-02 02:21:00,
2013-03-01 21:26:00,35.1,21.0,29.76,NW,315,5.8,8.1,56,0.00,,OVC065,0.00,VWS V14.01,2013-03-02 02:26:00,
2013-03-01 21:31:00,34.9,20.8,29.76,West,270,1.8,1.8,56,0.00,,OVC065,0.00,VWS V14.01,2013-03-02 02:31:00,
2013-03-01 21:36:00,34.9,20.8,29.76,North,0,4.5,4.5,56,0.00,,OVC065,0.00,VWS V14.01,2013-03-02 02:36:00,
2013-03-01 21:41:00,34.7,20.6,29.76,West,270,4.0,6.7,56,0.00,,OVC065,0.00,VWS V14.01,2013-03-02 02:41:00,
2013-03-01 21:46:00,34.5,20.5,29.76,NNW,338,0.0,0.0,56,0.00,,OVC065,0.00,VWS V14.01,2013-03-02 02:46:00,
2013-03-01 21:51:00,34.5,20.9,29.76,SW,225,4.9,4.9,57,0.00,,OVC065,0.00,VWS V14.01,2013-03-02 02:51:00,
2013-03-01 21:56:00,34.5,20.5,29.76,West,270,2.2,4.5,56,0.00,,OVC065,0.00,VWS V14.01,2013-03-02 02:56:00,
2013-03-01 22:01:00,34.5,20.5,29.76,SW,225,0.0,7.6,56,0.00,,OVC065,0.00,VWS V14.01,2013-03-02 03:01:00,
2013-03-01 22:06:00,34.3,20.3,29.76,NW,315,4.0,4.0,56,0.00,,OVC065,0.00,VWS V14.01,2013-03-02 03:06:00,
2013-03-01 22:11:00,34.3,20.3,29.76,North,0,0.0,4.5,56,0.00,,OVC065,0.00,VWS V14.01,2013-03-02 03:11:00,
2013-03-01 22:16:00,34.2,20.1,29.76,SSW,202,0.0,6.7,56,0.00,,OVC065,0.00,VWS V14.01,2013-03-02 03:16:00,
2013-03-01 22:21:00,34.2,20.1,29.76,West,270,0.0,6.3,56,0.00,,OVC065,0.00,VWS V14.01,2013-03-02 03:21:00,
2013-03-01 22:26:00,34.0,20.0,29.76,West,270,3.1,3.1,56,0.00,,OVC065,0.00,VWS V14.01,2013-03-02 03:26:00,
2013-03-01 22:31:00,33.8,19.8,29.76,NNW,338,0.0,4.5,56,0.00,,OVC065,0.00,VWS V14.01,2013-03-02 03:31:00,
2013-03-01 22:36:00,33.8,19.8,29.76,NW,315,6.3,6.3,56,0.00,,OVC065,0.00,VWS V14.01,2013-03-02 03:36:00,
2013-03-01 22:41:00,33.8,19.8,29.76,West,270,0.0,5.4,56,0.00,,OVC065,0.00,VWS V14.01,2013-03-02 03:41:00,
2013-03-01 22:46:00,33.6,20.0,29.76,WSW,248,2.2,5.4,57,0.00,,OVC065,0.00,VWS V14.01,2013-03-02 03:46:00,
2013-03-01 22:51:00,33.6,19.6,29.76,South,180,2.2,4.0,56,0.00,,OVC065,0.00,VWS V14.01,2013-03-02 03:51:00,
2013-03-01 22:56:00,33.4,19.9,29.76,NW,315,4.0,5.4,57,0.00,,OVC065,0.00,VWS V14.01,2013-03-02 03:56:00,
2013-03-01 23:01:00,33.3,19.7,29.76,SW,225,5.4,5.4,57,0.00,,OVC065,0.00,VWS V14.01,2013-03-02 04:01:00,
2013-03-01 23:06:00,33.3,19.7,29.76,NW,315,0.0,0.0,57,0.00,,OVC065,0.00,VWS V14.01,2013-03-02 04:06:00,
2013-03-01 23:11:00,33.3,19.7,29.76,NNW,338,5.8,5.8,57,0.00,,OVC065,0.00,VWS V14.01,2013-03-02 04:11:00,
2013-03-01 23:16:00,33.3,19.7,29.76,WNW,292,4.9,8.1,57,0.00,,OVC065,0.00,VWS V14.01,2013-03-02 04:16:00,
2013-03-01 23:21:00,33.1,19.1,29.76,North,0,2.7,3.1,56,0.00,,OVC065,0.00,VWS V14.01,2013-03-02 04:21:00,
2013-03-01 23:26:00,33.1,19.1,29.76,NNW,338,4.0,4.0,56,0.00,,OVC065,0.00,VWS V14.01,2013-03-02 04:26:00,
2013-03-01 23:31:00,33.1,19.1,29.76,NE,45,2.2,8.1,56,0.00,,OVC065,0.00,VWS V14.01,2013-03-02 04:31:00,
2013-03-01 23:36:00,33.1,19.1,29.76,NW,315,0.0,8.5,56,0.00,,OVC065,0.00,VWS V14.01,2013-03-02 04:36:00,
2013-03-01 23:41:00,32.9,18.9,29.76,WNW,292,4.9,4.9,56,0.00,,OVC070,0.00,VWS V14.01,2013-03-02 04:41:00,
2013-03-01 23:46:00,32.9,18.9,29.76,SW,225,1.8,2.7,56,0.00,,OVC070,0.00,VWS V14.01,2013-03-02 04:46:00,
2013-03-01 23:51:00,32.7,19.2,29.76,SW,225,2.2,3.1,57,0.00,,OVC070,0.00,VWS V14.01,2013-03-02 04:51:00,
2013-03-01 23:56:00,32.5,19.0,29.76,SW,225,4.5,4.5,57,0.00,,OVC070,0.00,VWS V14.01,2013-03-02 04:56:00,